Tillbaka till svenska Fidonet
English   Information   Debug  
FILM   0/18
FNEWS_PUBLISH   4569
FN_SYSOP   41808
FN_SYSOP_OLD1   71952
FTP_FIDO   0/2
FTSC_PUBLIC   0/13887
FUNNY   0/4886
GENEALOGY.EUR   0/71
GET_INFO   105
GOLDED   0/408
HAM   0/16128
HOLYSMOKE   0/6791
HOT_SITES   0/1
HTMLEDIT   0/71
HUB203   466
HUB_100   264
HUB_400   39
HUMOR   0/29
IC   0/2851
INTERNET   0/424
INTERUSER   0/3
IP_CONNECT   719
JAMNNTPD   0/233
JAMTLAND   0/47
KATTY_KORNER   0/41
LAN   0/16
LINUX-USER   0/19
LINUXHELP   0/1155
LINUX   0/22169
LINUX_BBS   0/957
mail   18.68
mail_fore_ok   249
MENSA   0/341
MODERATOR   0/102
MONTE   0/992
MOSCOW_OKLAHOMA   0/1245
MUFFIN   0/783
MUSIC   0/321
N203_STAT   938
N203_SYSCHAT   313
NET203   321
NET204   69
NET_DEV   0/10
NORD.ADMIN   0/101
NORD.CHAT   0/2572
NORD.FIDONET   189
NORD.HARDWARE   0/28
NORD.KULTUR   0/114
NORD.PROG   0/32
NORD.SOFTWARE   0/88
NORD.TEKNIK   0/58
NORD   0/453
OCCULT_CHAT   0/93
OS2BBS   0/787
OS2DOSBBS   0/580
OS2HW   0/42
OS2INET   0/37
OS2LAN   0/134
OS2PROG   0/36
OS2REXX   0/113
OS2USER-L   207
OS2   0/4804
OSDEBATE   0/18996
PASCAL   0/490
PERL   0/457
PHP   0/45
POINTS   0/405
POLITICS   0/29554
POL_INC   0/14731
PSION   103
R20_ADMIN   1129
R20_AMATORRADIO   0/2
R20_BEST_OF_FIDONET   14
R20_CHAT   0/893
R20_DEPP   0/3
R20_DEV   399
R20_ECHO2   1492
R20_ECHOPRES   0/35
R20_ESTAT   0/719
R20_FIDONETPROG...
...RAM.MYPOINT
  0/2
R20_FIDONETPROGRAM   0/22
R20_FIDONET   0/248
R20_FILEFIND   0/24
R20_FILEFOUND   0/22
R20_HIFI   0/3
R20_INFO2   3382
R20_INTERNET   0/12940
R20_INTRESSE   0/60
R20_INTR_KOM   0/99
R20_KANDIDAT.CHAT   42
R20_KANDIDAT   28
R20_KOM_DEV   112
R20_KONTROLL   0/13360
R20_KORSET   0/18
R20_LOKALTRAFIK   0/24
R20_MODERATOR   0/1852
R20_NC   76
R20_NET200   245
R20_NETWORK.OTH...
...ERNETS
  0/13
R20_OPERATIVSYS...
...TEM.LINUX
  0/44
R20_PROGRAMVAROR   0/1
R20_REC2NEC   534
R20_SFOSM   0/341
R20_SF   0/108
R20_SPRAK.ENGLISH   0/1
R20_SQUISH   107
R20_TEST   2
R20_WORST_OF_FIDONET   20
RAR   0/9
RA_MULTI   106
RA_UTIL   0/162
REGCON.EUR   0/2066
REGCON   0/13
SCIENCE   0/1206
SF   0/239
SHAREWARE_SUPPORT   0/5146
SHAREWRE   0/14
SIMPSONS   0/169
STATS_OLD1   0/2539.065
STATS_OLD2   0/2530
STATS_OLD3   0/2395.095
STATS_OLD4   0/1692.25
SURVIVOR   0/495
SYSOPS_CORNER   0/3
SYSOP   0/84
TAGLINES   0/112
TEAMOS2   0/4530
TECH   0/2617
TEST.444   0/105
TRAPDOOR   0/19
TREK   0/755
TUB   0/290
UFO   0/40
UNIX   0/1316
USA_EURLINK   0/102
USR_MODEMS   0/1
VATICAN   0/2740
VIETNAM_VETS   0/14
VIRUS   0/378
VIRUS_INFO   0/201
VISUAL_BASIC   0/473
WHITEHOUSE   0/5187
WIN2000   0/101
WIN32   0/30
WIN95   0/4291
WIN95_OLD1   5313/70272
WINDOWS   0/1517
WWB_SYSOP   0/419
WWB_TECH   0/810
ZCC-PUBLIC   0/1
ZEC   4

 
4DOS   0/134
ABORTION   0/7
ALASKA_CHAT   0/506
ALLFIX_FILE   0/1313
ALLFIX_FILE_OLD1   0/7997
ALT_DOS   0/152
AMATEUR_RADIO   0/1039
AMIGASALE   0/14
AMIGA   0/331
AMIGA_INT   0/1
AMIGA_PROG   0/20
AMIGA_SYSOP   0/26
ANIME   0/15
ARGUS   0/924
ASCII_ART   0/340
ASIAN_LINK   0/651
ASTRONOMY   0/417
AUDIO   0/92
AUTOMOBILE_RACING   0/105
BABYLON5   0/17862
BAG   135
BATPOWER   0/361
BBBS.ENGLISH   0/382
BBSLAW   0/109
BBS_ADS   0/5290
BBS_INTERNET   0/507
BIBLE   0/3563
BINKD   0/1119
BINKLEY   0/215
BLUEWAVE   0/2173
CABLE_MODEMS   0/25
CBM   0/46
CDRECORD   0/66
CDROM   0/20
CLASSIC_COMPUTER   0/378
COMICS   0/15
CONSPRCY   0/899
COOKING   36219
COOKING_OLD1   0/24719
COOKING_OLD2   0/40862
COOKING_OLD3   0/37489
COOKING_OLD4   0/35496
COOKING_OLD5   9370
C_ECHO   0/189
C_PLUSPLUS   0/31
DIRTY_DOZEN   0/201
DOORGAMES   0/2115
DOS_INTERNET   0/196
duplikat   6002
ECHOLIST   0/18295
EC_SUPPORT   0/318
ELECTRONICS   0/359
ELEKTRONIK.GER   1534
ENET.LINGUISTIC   0/13
ENET.POLITICS   0/4
ENET.SOFT   0/11701
ENET.SYSOP   34076
ENET.TALKS   0/32
ENGLISH_TUTOR   0/2000
EVOLUTION   0/1335
FDECHO   0/217
FDN_ANNOUNCE   0/7068
FIDONEWS   24344
FIDONEWS_OLD1   0/49742
FIDONEWS_OLD2   0/35949
FIDONEWS_OLD3   0/30874
FIDONEWS_OLD4   0/37224
FIDO_SYSOP   12854
FIDO_UTIL   0/180
FILEFIND   0/209
FILEGATE   0/212
Möte HAM, 16128 texter
 lista första sista föregående nästa
Text 3619, 880 rader
Skriven 2010-04-22 23:30:19 av Amsat List (1:323/120.0)
Ärende: [keps]  orb10112.amsa
=============================
[keps]  orb10112.amsa

Return-Path: <keps-bounces@amsat.org>
X-Rcpt: craig.healy@chowda.com
X-UIDL: 1271992273.37235

SB KEPS @ AMSAT  $ORB10112.O
Orbital Elements  10112.OSCAR

HR AMSAT ORBITAL ELEMENTS FOR OSCAR SATELLITES
FROM WA5QGD FORT WORTH,TX April 22, 2010
Send Subscribe/unsubscribe to KEPS at http://www.amsat.org/mailman/listinfo/kep
BID: ORB10112.O
TO ALL RADIO AMATEURS BT

Satellite: AO-07
Catalog number: 07530
Epoch time:      10111.62005048
Element set:     757
Inclination:      101.4036 deg
RA of node:       129.6767 deg
Eccentricity:    0.0012138
Arg of perigee:   025.9972 deg
Mean anomaly:     334.1707 deg
Mean motion:   12.53578257 rev/day
Decay rate:       -2.7e-07 rev/day^2
Epoch rev:           62136
Checksum:              281

Satellite: FO-29
Catalog number: 24278
Epoch time:      10111.60429324
Element set:     293
Inclination:      098.5144 deg
RA of node:       308.5501 deg
Eccentricity:    0.0349754
Arg of perigee:   270.6884 deg
Mean anomaly:     085.4199 deg
Mean motion:   13.52949111 rev/day
Decay rate:       -4.3e-07 rev/day^2
Epoch rev:           67545
Checksum:              320

Satellite: SO-33
Catalog number: 25509
Epoch time:      10112.27437679
Element set:     694
Inclination:      031.4304 deg
RA of node:       104.7063 deg
Eccentricity:    0.0354235
Arg of perigee:   161.0901 deg
Mean anomaly:     200.3367 deg
Mean motion:   14.28303140 rev/day
Decay rate:       2.52e-06 rev/day^2
Epoch rev:           60005
Checksum:              249

Satellite: RS-22
Catalog number: 27939
Epoch time:      10112.67235539
Element set:     116
Inclination:      097.9010 deg
RA of node:       340.4919 deg
Eccentricity:    0.0012500
Arg of perigee:   233.2978 deg
Mean anomaly:     126.7069 deg
Mean motion:   14.63407377 rev/day
Decay rate:       1.40e-06 rev/day^2
Epoch rev:           35083
Checksum:              292

Satellite: VO-52
Catalog number: 28650
Epoch time:      10112.28658941
Element set:     486
Inclination:      097.6966 deg
RA of node:       167.8875 deg
Eccentricity:    0.0028384
Arg of perigee:   099.2497 deg
Mean anomaly:     261.1906 deg
Mean motion:   14.81726968 rev/day
Decay rate:       -3.3e-07 rev/day^2
Epoch rev:           26841
Checksum:              360

Satellite: SO-67
Catalog number: 35870
Epoch time:      10112.79428505
Element set:     656
Inclination:      097.3360 deg
RA of node:       163.3653 deg
Eccentricity:    0.0007323
Arg of perigee:   247.8992 deg
Mean anomaly:     224.7220 deg
Mean motion:   15.22474852 rev/day
Decay rate:       7.46e-06 rev/day^2
Epoch rev:            3303
Checksum:              304

Satellite: HO-68
Catalog number: 36122
Epoch time:      10112.68622619
Element set:     239
Inclination:      100.4733 deg
RA of node:       173.6675 deg
Eccentricity:    0.0007812
Arg of perigee:   100.9409 deg
Mean anomaly:     259.2577 deg
Mean motion:   13.16280338 rev/day
Decay rate:       -4.5e-07 rev/day^2
Epoch rev:            1691
Checksum:              291

/EX
SB KEPS @ AMSAT  $ORB10112.D
Orbital Elements  10112.MICROS

HR AMSAT ORBITAL ELEMENTS FOR THE MICROSATS
FROM WA5QGD FORT WORTH,TX April 22, 2010
Send Subscribe/unsubscribe to KEPS at http://www.amsat.org/mailman/listinfo/kep
BID: ORB10112.D
TO ALL RADIO AMATEURS BT

Satellite: UO-11
Catalog number: 14781
Epoch time:      10111.22353581
Element set:     222
Inclination:      098.0596 deg
RA of node:       162.7756 deg
Eccentricity:    0.0010190
Arg of perigee:   063.0983 deg
Mean anomaly:     297.1268 deg
Mean motion:   14.79790710 rev/day
Decay rate:      -1.69e-06 rev/day^2
Epoch rev:           40338
Checksum:              298

Satellite: AO-16
Catalog number: 20439
Epoch time:      10111.93599376
Element set:     876
Inclination:      098.3279 deg
RA of node:       072.0721 deg
Eccentricity:    0.0010713
Arg of perigee:   339.1909 deg
Mean anomaly:     020.8842 deg
Mean motion:   14.31857347 rev/day
Decay rate:        1.2e-07 rev/day^2
Epoch rev:            5733
Checksum:              303

Satellite: LO-19
Catalog number: 20442
Epoch time:      10111.94276312
Element set:     786
Inclination:      098.2886 deg
RA of node:       078.1094 deg
Eccentricity:    0.0011555
Arg of perigee:   333.3821 deg
Mean anomaly:     026.6766 deg
Mean motion:   14.32089195 rev/day
Decay rate:       -5.2e-07 rev/day^2
Epoch rev:            5750
Checksum:              302

Satellite: AO-27
Catalog number: 22825
Epoch time:      10112.84960740
Element set:     510
Inclination:      098.4806 deg
RA of node:       062.2436 deg
Eccentricity:    0.0009356
Arg of perigee:   074.1259 deg
Mean anomaly:     286.0960 deg
Mean motion:   14.29294101 rev/day
Decay rate:       -2.3e-07 rev/day^2
Epoch rev:           86414
Checksum:              290

Satellite: IO-26
Catalog number: 22826
Epoch time:      10112.78497576
Element set:     248
Inclination:      098.4753 deg
RA of node:       062.8035 deg
Eccentricity:    0.0009925
Arg of perigee:   069.3631 deg
Mean anomaly:     290.8611 deg
Mean motion:   14.29549674 rev/day
Decay rate:        2.2e-07 rev/day^2
Epoch rev:           86424
Checksum:              330

Satellite: GO-32
Catalog number: 25397
Epoch time:      10112.41899798
Element set:     166
Inclination:      098.3136 deg
RA of node:       122.9397 deg
Eccentricity:    0.0002267
Arg of perigee:   079.6920 deg
Mean anomaly:     280.4533 deg
Mean motion:   14.23176739 rev/day
Decay rate:       1.40e-06 rev/day^2
Epoch rev:           61211
Checksum:              311

